Regional Weather Roundup
Issued by NWS

Home | Current Version | Previous Version | Text Only | Print | Product List | Glossary On
Versions: 1 2 3 4 5 6 7 8 9 10 11 12 13 14 15 16 17 18 19 20 21 22 23 24 25 26 27
000
ASUS44 KLIX 051811
RWRLA
LOUISIANA WEATHER ROUNDUP
NATIONAL WEATHER SERVICE NEW ORLEANS LA
100 PM CDT THU MAY 05 2016

NOTE: "FAIR" INDICATES FEW OR NO CLOUDS BELOW 12,000 FEET WITH NO
      SIGNIFICANT WEATHER AND/OR OBSTRUCTIONS TO VISIBILITY.
      SKY/WX - SKY CONDITION AND SIGNIFICANT WEATHER.
      TMP - AIR TEMPERATURE.    DP   - DEWPOINT TEMPERATURE.
      RH  - RELATIVE HUMIDITY.  PRES - PRESSURE.
      HX  - HEAT INDEX.         WCI  - WIND CHILL INDEX.

*  THESE STATIONS ARE NOT NWS OR FAA STATIONS AND ARE NOT UNDER
   NWS QUALITY CONTROL.

LAZ040-048-061>063-065-066-069-051900-
SOUTHEAST LOUISIANA

CITY           SKY/WX    TMP DP  RH WIND       PRES   REMARKS
N.O. AUDUBON   NOT AVBL
N.O. INTL ARPT SUNNY     78  54  43 NW12G20   29.94F
6HR MIN TEMP:  65; 6HR MAX TEMP:  78;

N.O. LAKEFRONT SUNNY     74  55  51 NW9       29.94F
6HR MIN TEMP:  67; 6HR MAX TEMP:  74;

N.O. DOWNTOWN* FAIR      77  49  37 NW10      29.94F
6HR MIN TEMP:  67; 6HR MAX TEMP:  77;

RESERVE*       FAIR      81  46  28 NW10      29.94F
6HR MIN TEMP:  64; 6HR MAX TEMP:  81;

SLIDELL        SUNNY     77  53  43 N10G17    29.92F
6HR MIN TEMP:  60; 6HR MAX TEMP:  78;

BATON ROUGE    SUNNY     77  45  32 VRB6      29.95F
6HR MIN TEMP:  61; 6HR MAX TEMP:  78;

BOOTHVILLE     SUNNY     74  59  59 VRB5      29.93F
6HR MIN TEMP:  69; 6HR MAX TEMP:  74;

BELLE CHASSE   SUNNY     78  47  33 N10G17    29.93F
6HR MIN TEMP:  62; 6HR MAX TEMP:  79;

BOGALUSA*      FAIR      77  45  31 N13       29.95F
6HR MIN TEMP:  56; 6HR MAX TEMP:  77;

GALLIANO*      CLEAR     79  47  32 N13       29.93F
6HR MIN TEMP:  68; 6HR MAX TEMP:  80;

NEW ROADS*     FAIR      75  49  39 NW10G17   29.97F
6HR MIN TEMP:  61; 6HR MAX TEMP:  75;

GONZALES*      FAIR      77  46  32 NW9       29.94F
6HR MIN TEMP:  62; 6HR MAX TEMP:  78;

HAMMOND*       SUNNY     77  43  29 N9        29.94F
HOUMA*         NOT AVBL
PORT FOURCHON* CLEAR     77  50  38 NE12      29.94F

$$

LAZ041-044-053-054-051900-
SOUTHWEST LOUISIANA

CITY           SKY/WX    TMP DP  RH WIND       PRES   REMARKS
LAKE CHARLES   SUNNY     80  46  30 NE9       29.99F
6HR MIN TEMP:  61; 6HR MAX TEMP:  80;

LAFAYETTE      SUNNY     79  48  33 N9G21     29.98F
6HR MIN TEMP:  63; 6HR MAX TEMP:  79;

PATTERSON      NOT AVBL
SALT POINT       N/A     78  53  41 W9        29.94F
6HR MIN TEMP:  68; 6HR MAX TEMP:  79;

NEW IBERIA     SUNNY     78  46  32 N7        29.98F
6HR MIN TEMP:  61; 6HR MAX TEMP:  79;

CHENAULT AIRPK SUNNY     77  46  33 NW13      30.00F

$$

LAZ027-028-051900-
CENTRAL LOUISIANA

CITY           SKY/WX    TMP DP  RH WIND       PRES   REMARKS
FORT POLK      SUNNY     76  45  33 NW9       30.01F
6HR MIN TEMP:  58; 6HR MAX TEMP:  76;

ALEXANDRIA INT SUNNY     77  42  28 NW16      29.98F
6HR MIN TEMP:  55; 6HR MAX TEMP:  77;

ALEXANDRIA     SUNNY     79  44  28 VRB7      29.99F
6HR MIN TEMP:  61; 6HR MAX TEMP:  79;


$$

LAZ001-002-051900-
NORTHWEST LOUISIANA

CITY           SKY/WX    TMP DP  RH WIND       PRES   REMARKS
SHREVEPORT     SUNNY     76  45  33 NW9       30.03F
6HR MIN TEMP:  55; 6HR MAX TEMP:  76;

BARKSDALE AFB  MOSUNNY   74  46  37 N7        30.03F
6HR MIN TEMP:  55; 6HR MAX TEMP:  75;

DTN SHREVEPORT SUNNY     74  48  39 NW8       30.04F
6HR MIN TEMP:  56; 6HR MAX TEMP:  75;


$$

LAZ014-016-051900-
NORTHEAST LOUISIANA

CITY           SKY/WX    TMP DP  RH WIND       PRES   REMARKS
MONROE         SUNNY     76  46  34 N14       30.01F
6HR MIN TEMP:  55; 6HR MAX TEMP:  76;

TALLULAH       SUNNY     75  43  31 N13G18    29.99F
6HR MIN TEMP:  61; 6HR MAX TEMP:  76;


$$





USA.gov is the U.S. government's official web portal to all federal, state and local government web resources and services.